This is the latest recevied weather packets stored in our database for station/object N4HAC. If no packets are shown the sender has not sent any weather packets the latest 10 day(s).
| Time | Temp. | Humidity | Pressure | Rain* | Wind** | Luminosity | Snow |
|---|---|---|---|---|---|---|---|
| 1777675578 | 18.89° C | 39% | 1004 hPa | 0 mm | - | 98 W/m² | - |
| 1777675275 | 18.89° C | 39% | 1003.8 hPa | 0 mm | - | 109 W/m² | - |
| 1777674972 | 19.44° C | 40% | 1003.9 hPa | 0 mm | - | 141 W/m² | - |
| 1777674669 | 19.44° C | 38% | 1004.1 hPa | 0 mm | - | 179 W/m² | - |
| 1777674383 | 18.89° C | 40% | 1004.2 hPa | 0 mm | - | 172 W/m² | - |
| 1777674062 | 18.33° C | 42% | 1004.4 hPa | 0 mm | - | 185 W/m² | - |
| 1777673758 | 18.33° C | 38% | 1004.4 hPa | 0 mm | - | 174 W/m² | - |
| 1777673455 | 18.33° C | 40% | 1004.1 hPa | 0 mm | - | 119 W/m² | - |
| 1777673153 | 17.78° C | 40% | 1004.4 hPa | 0 mm | - | 106 W/m² | - |
| 1777672850 | 17.78° C | 40% | 1004.4 hPa | 0 mm | - | 117 W/m² | - |
| 1777672546 | 17.78° C | 40% | 1004.2 hPa | 0 mm | - | 123 W/m² | - |
| 1777672241 | 17.78° C | 39% | 1004.4 hPa | 0 mm | - | 106 W/m² | - |
| 1777671937 | 17.78° C | 40% | 1004.3 hPa | 0 mm | - | 109 W/m² | - |
| 1777671633 | 17.78° C | 41% | 1004.2 hPa | 0 mm | - | 88 W/m² | - |
| 1777671330 | 18.33° C | 39% | 1004.3 hPa | 0 mm | - | 64 W/m² | - |
| 1777671026 | 18.89° C | 40% | 1004.3 hPa | 0 mm | - | 293 W/m² | - |
| 1777670722 | 19.44° C | 38% | 1004.4 hPa | 0 mm | - | 254 W/m² | - |
| 1777670420 | 18.89° C | 39% | 1004.4 hPa | 0 mm | - | 339 W/m² | - |
| 1777670116 | 18.89° C | 38% | 1004.4 hPa | 0 mm | - | 357 W/m² | - |
| 1777669815 | 19.44° C | 39% | 1004.2 hPa | 0 mm | - | 376 W/m² | - |
| 1777669510 | 18.89° C | 39% | 1004.4 hPa | 0 mm | - | 395 W/m² | - |
| 1777669207 | 18.33° C | 38% | 1004.4 hPa | 0 mm | - | 413 W/m² | - |
| 1777668904 | 19.44° C | 38% | 1004.5 hPa | 0 mm | - | 427 W/m² | - |
| 1777668601 | 18.33° C | 37% | 1004.2 hPa | 0 mm | - | 437 W/m² | - |
| 1777668297 | 18.89° C | 38% | 1004.4 hPa | 0 mm | - | 448 W/m² | - |
* Rain latest hour (hover to see other rain measurements)
** Current wind speed in m/s (hover to see current wind gust speed)